Вернуться в каталог

SL-12 R/B

AUX MOTOR

АктивенHEO
NORAD 33472·ROCKET BODY·🇷🇺 Russia

Запущен Dec 25, 2008 с Baikonur Cosmodrome

Loading…

Ближайшие Пролёты (ближайшие 24 часа)

TLE

СвежийSource: Space-Track

Эпоха: Sep 13, 2026, 10:37 UTC

1 33472U 08067G   26256.44259503  .00000014  00000-0  23998-3 0  9992
2 33472  65.0415  28.2885 5580474 274.4901  27.1757  4.40027639275744

Отслеживайте SL-12 R/B в реальном времени с AllMySat

Download on the App Store